CCDAZ SCEL-SCSE

Flight info

Callsign CCDAZ
Flight time 0h 39m
Altitude 32000
Route N0424F320 DONT1L DONTI UQ802 KUGAP KUGAP5
Aircraft C25C/M-SDE2E3FGHRWXY/LB1

Departure

Time 2026-04-17 10:11
Airport Comodoro Arturo Merino Benítez International Airport (SCEL)

Arrival

Time 2026-04-17 10:51
Airport La Florida Airport (SCSE)
Time Latitude Longitude Altitude Speed Heading
2026-04-17 09:59 -33.39223 -70.79204 1558 ft 0 kts 360°
2026-04-17 10:05 -33.39221 -70.79204 1558 ft 2 kts 360°
2026-04-17 10:05 -33.39210 -70.79180 1558 ft 8 kts 91°
2026-04-17 10:06 -33.39164 -70.79148 1558 ft 13 kts 356°
2026-04-17 10:06 -33.39047 -70.79153 1558 ft 17 kts 17°
2026-04-17 10:06 -33.39021 -70.79046 1558 ft 14 kts 87°
2026-04-17 10:06 -33.39006 -70.78926 1558 ft 15 kts 40°
2026-04-17 10:07 -33.38886 -70.78923 1558 ft 21 kts 358°
2026-04-17 10:07 -33.38722 -70.78931 1558 ft 24 kts 357°
2026-04-17 10:07 -33.38554 -70.78940 1558 ft 24 kts 357°
2026-04-17 10:07 -33.38390 -70.78949 1558 ft 23 kts 357°
2026-04-17 10:08 -33.38321 -70.78904 1558 ft 12 kts 131°
2026-04-17 10:08 -33.38403 -70.78840 1558 ft 15 kts 148°
2026-04-17 10:08 -33.38492 -70.78772 1558 ft 15 kts 147°
2026-04-17 10:08 -33.38579 -70.78703 1558 ft 15 kts 147°
2026-04-17 10:09 -33.38670 -70.78627 1558 ft 16 kts 143°
2026-04-17 10:09 -33.38729 -70.78610 1557 ft 0 kts 178°
2026-04-17 10:10 -33.38733 -70.78610 1557 ft 7 kts 178°
2026-04-17 10:11 -33.40146 -70.78537 2086 ft 156 kts 176°
2026-04-17 10:11 -33.41287 -70.78479 2968 ft 172 kts 175°
2026-04-17 10:11 -33.42518 -70.78406 3833 ft 185 kts 176°
2026-04-17 10:11 -33.43906 -70.78330 4697 ft 213 kts 176°
2026-04-17 10:12 -33.45470 -70.78460 5566 ft 238 kts 191°
2026-04-17 10:12 -33.47059 -70.79247 6447 ft 258 kts 221°
2026-04-17 10:12 -33.48010 -70.81066 7276 ft 270 kts 258°
2026-04-17 10:12 -33.48006 -70.83411 7679 ft 294 kts 291°
2026-04-17 10:13 -33.46922 -70.85293 8381 ft 273 kts 323°
2026-04-17 10:13 -33.45260 -70.86305 9726 ft 265 kts 336°
2026-04-17 10:13 -33.43567 -70.87225 10827 ft 270 kts 334°
2026-04-17 10:13 -33.41852 -70.88275 11540 ft 288 kts 330°
2026-04-17 10:14 -33.40055 -70.89504 11863 ft 314 kts 329°
2026-04-17 10:14 -33.38110 -70.90812 12613 ft 322 kts 329°
2026-04-17 10:14 -33.36132 -70.92107 13535 ft 326 kts 330°
2026-04-17 10:14 -33.34129 -70.93412 14347 ft 330 kts 329°
2026-04-17 10:15 -33.32118 -70.94730 15078 ft 334 kts 329°
2026-04-17 10:15 -33.30067 -70.96085 15777 ft 339 kts 328°
2026-04-17 10:15 -33.27991 -70.97446 16484 ft 342 kts 328°
2026-04-17 10:15 -33.25882 -70.98827 17208 ft 347 kts 328°
2026-04-17 10:16 -33.23745 -71.00229 17953 ft 351 kts 328°
2026-04-17 10:16 -33.21611 -71.01625 18627 ft 355 kts 327°
2026-04-17 10:16 -33.19423 -71.03061 19235 ft 359 kts 327°
2026-04-17 10:16 -33.17235 -71.04490 19886 ft 362 kts 326°
2026-04-17 10:17 -33.15005 -71.05948 20550 ft 365 kts 326°
2026-04-17 10:17 -33.12751 -71.07423 21199 ft 369 kts 325°
2026-04-17 10:17 -33.10509 -71.08887 21816 ft 372 kts 324°
2026-04-17 10:17 -33.08236 -71.10372 22416 ft 376 kts 324°
2026-04-17 10:18 -33.05920 -71.11882 23025 ft 379 kts 324°
2026-04-17 10:18 -33.03612 -71.13385 23569 ft 382 kts 324°
2026-04-17 10:18 -33.01252 -71.14925 24048 ft 386 kts 323°
2026-04-17 10:18 -32.98876 -71.16471 24478 ft 390 kts 323°
2026-04-17 10:19 -32.96476 -71.17979 24862 ft 400 kts 328°
2026-04-17 10:19 -32.93746 -71.18887 25262 ft 419 kts 341°
2026-04-17 10:19 -32.90756 -71.19082 25634 ft 433 kts 351°
2026-04-17 10:19 -32.87750 -71.19143 25988 ft 437 kts 351°
2026-04-17 10:20 -32.84693 -71.19200 26346 ft 441 kts 351°
2026-04-17 10:20 -32.81612 -71.19263 26689 ft 445 kts 351°
2026-04-17 10:20 -32.78540 -71.19321 27147 ft 444 kts 351°
2026-04-17 10:20 -32.75430 -71.19372 27528 ft 447 kts 351°
2026-04-17 10:21 -32.72295 -71.19434 27830 ft 451 kts 351°
2026-04-17 10:21 -32.69139 -71.19492 28168 ft 453 kts 351°
2026-04-17 10:21 -32.66013 -71.19548 28590 ft 454 kts 351°
2026-04-17 10:21 -32.62843 -71.19602 28832 ft 458 kts 351°
2026-04-17 10:22 -32.59617 -71.19667 29123 ft 461 kts 351°
2026-04-17 10:22 -32.56443 -71.19724 29530 ft 461 kts 351°
2026-04-17 10:22 -32.53224 -71.19778 29942 ft 462 kts 351°
2026-04-17 10:22 -32.49993 -71.19837 30311 ft 462 kts 351°
2026-04-17 10:23 -32.46765 -71.19899 30663 ft 462 kts 351°
2026-04-17 10:23 -32.43572 -71.19956 30992 ft 463 kts 351°
2026-04-17 10:23 -32.40339 -71.20015 31361 ft 463 kts 350°
2026-04-17 10:23 -32.37130 -71.20071 31705 ft 463 kts 351°
2026-04-17 10:24 -32.33894 -71.20132 31981 ft 465 kts 350°
2026-04-17 10:24 -32.27345 -71.20257 32054 ft 479 kts 350°
2026-04-17 10:25 -32.20656 -71.20368 32050 ft 479 kts 351°
2026-04-17 10:25 -32.14066 -71.20492 32055 ft 473 kts 351°
2026-04-17 10:26 -32.07493 -71.20608 32060 ft 468 kts 351°
2026-04-17 10:26 -32.01025 -71.20727 32059 ft 465 kts 351°
2026-04-17 10:27 -31.94586 -71.20841 32058 ft 461 kts 351°
2026-04-17 10:27 -31.88149 -71.20960 32058 ft 460 kts 351°
2026-04-17 10:28 -31.81778 -71.21070 32057 ft 459 kts 351°
2026-04-17 10:28 -31.75358 -71.20957 32059 ft 463 kts 355°
2026-04-17 10:29 -31.68957 -71.20587 32058 ft 462 kts 354°
2026-04-17 10:29 -31.62499 -71.20192 31755 ft 469 kts 355°
2026-04-17 10:29 -31.59222 -71.19990 31150 ft 471 kts 355°
2026-04-17 10:30 -31.55990 -71.19795 30532 ft 470 kts 355°
2026-04-17 10:30 -31.52712 -71.19597 29873 ft 470 kts 356°
2026-04-17 10:30 -31.49437 -71.19398 29242 ft 468 kts 356°
2026-04-17 10:30 -31.46191 -71.19200 28619 ft 464 kts 356°
2026-04-17 10:31 -31.43018 -71.19007 28022 ft 460 kts 356°
2026-04-17 10:31 -31.39809 -71.18816 27407 ft 457 kts 356°
2026-04-17 10:31 -31.36637 -71.18625 26804 ft 454 kts 356°
2026-04-17 10:31 -31.33484 -71.18432 26203 ft 450 kts 356°
2026-04-17 10:32 -31.30404 -71.18248 25631 ft 445 kts 355°
2026-04-17 10:32 -31.27303 -71.18060 25030 ft 441 kts 356°
2026-04-17 10:32 -31.24242 -71.17876 24444 ft 436 kts 356°
2026-04-17 10:32 -31.21260 -71.17695 23878 ft 430 kts 356°
2026-04-17 10:33 -31.18282 -71.17519 23268 ft 424 kts 356°
2026-04-17 10:33 -31.15351 -71.17340 22694 ft 416 kts 356°
2026-04-17 10:33 -31.12476 -71.17167 22153 ft 410 kts 356°
2026-04-17 10:33 -31.09674 -71.17003 21623 ft 408 kts 356°
2026-04-17 10:34 -31.06835 -71.16834 21079 ft 407 kts 356°
2026-04-17 10:34 -31.04011 -71.16664 20544 ft 405 kts 357°
2026-04-17 10:34 -31.01184 -71.16494 20004 ft 403 kts 357°
2026-04-17 10:34 -30.98387 -71.16328 19468 ft 402 kts 357°
2026-04-17 10:35 -30.95633 -71.16159 18955 ft 395 kts 358°
2026-04-17 10:35 -30.92940 -71.15996 18541 ft 383 kts 358°
2026-04-17 10:35 -30.90298 -71.15836 18087 ft 375 kts 358°
2026-04-17 10:35 -30.87691 -71.15686 17666 ft 373 kts 358°
2026-04-17 10:36 -30.85091 -71.15532 17252 ft 374 kts 358°
2026-04-17 10:36 -30.82514 -71.15375 16842 ft 373 kts 359°
2026-04-17 10:36 -30.79916 -71.15221 16429 ft 372 kts 359°
2026-04-17 10:36 -30.77363 -71.15065 16024 ft 369 kts 359°
2026-04-17 10:37 -30.74799 -71.14912 15615 ft 364 kts 359°
2026-04-17 10:37 -30.72301 -71.14761 15217 ft 359 kts 359°
2026-04-17 10:37 -30.69809 -71.14617 14819 ft 356 kts 360°
2026-04-17 10:37 -30.67365 -71.14468 14428 ft 352 kts 360°
2026-04-17 10:38 -30.64908 -71.14323 14041 ft 349 kts
2026-04-17 10:38 -30.63300 -71.14224 13771 ft 348 kts
2026-04-17 10:38 -30.60114 -71.14036 13242 ft 343 kts
2026-04-17 10:38 -30.58530 -71.13941 12990 ft 341 kts
2026-04-17 10:39 -30.56163 -71.13802 12612 ft 338 kts
2026-04-17 10:39 -30.53813 -71.13660 12239 ft 335 kts
2026-04-17 10:39 -30.51516 -71.13525 11874 ft 331 kts
2026-04-17 10:39 -30.49229 -71.13389 11502 ft 327 kts
2026-04-17 10:40 -30.46959 -71.13251 11139 ft 324 kts
2026-04-17 10:40 -30.44725 -71.13122 10794 ft 315 kts
2026-04-17 10:40 -30.42610 -71.12992 10437 ft 290 kts
2026-04-17 10:40 -30.40660 -71.12878 10089 ft 271 kts
2026-04-17 10:41 -30.38849 -71.12770 9770 ft 260 kts
2026-04-17 10:41 -30.37031 -71.12665 9473 ft 262 kts
2026-04-17 10:41 -30.35185 -71.12554 9188 ft 268 kts
2026-04-17 10:41 -30.33292 -71.12441 8894 ft 275 kts
2026-04-17 10:42 -30.31376 -71.12330 8587 ft 280 kts
2026-04-17 10:42 -30.29405 -71.12212 8280 ft 285 kts
2026-04-17 10:42 -30.27424 -71.12093 7962 ft 290 kts
2026-04-17 10:42 -30.25430 -71.11977 7643 ft 275 kts
2026-04-17 10:43 -30.23552 -71.11818 7526 ft 270 kts
2026-04-17 10:43 -30.21680 -71.11642 7497 ft 268 kts
2026-04-17 10:43 -30.19811 -71.11529 7286 ft 274 kts
2026-04-17 10:43 -30.17890 -71.11373 6952 ft 282 kts
2026-04-17 10:44 -30.15931 -71.11197 6595 ft 276 kts
2026-04-17 10:44 -30.14052 -71.11037 6237 ft 271 kts
2026-04-17 10:44 -30.12220 -71.10814 5887 ft 262 kts 13°
2026-04-17 10:44 -30.10614 -71.09859 5549 ft 263 kts 32°
2026-04-17 10:45 -30.09020 -71.08777 5212 ft 263 kts 30°
2026-04-17 10:45 -30.07500 -71.07717 4884 ft 248 kts 31°
2026-04-17 10:45 -30.06070 -71.06711 4562 ft 232 kts 31°
2026-04-17 10:45 -30.04727 -71.05775 4267 ft 219 kts 31°
2026-04-17 10:46 -30.03419 -71.04979 3991 ft 209 kts 19°
2026-04-17 10:46 -30.02019 -71.04628 3728 ft 202 kts
2026-04-17 10:46 -30.00639 -71.04703 3470 ft 200 kts 351°
2026-04-17 10:46 -29.99314 -71.05170 3209 ft 201 kts 336°
2026-04-17 10:47 -29.98231 -71.05936 2979 ft 201 kts 322°
2026-04-17 10:47 -29.97263 -71.07074 2726 ft 201 kts 306°
2026-04-17 10:47 -29.96574 -71.08454 2468 ft 187 kts 295°
2026-04-17 10:47 -29.96054 -71.09673 2239 ft 155 kts 296°
2026-04-17 10:48 -29.95629 -71.10662 2055 ft 127 kts 296°
2026-04-17 10:48 -29.95243 -71.11559 1880 ft 122 kts 295°
2026-04-17 10:48 -29.94875 -71.12420 1730 ft 120 kts 295°
2026-04-17 10:48 -29.94506 -71.13276 1573 ft 119 kts 295°
2026-04-17 10:49 -29.94148 -71.14123 1423 ft 117 kts 295°
2026-04-17 10:49 -29.93782 -71.14965 1269 ft 117 kts 295°
2026-04-17 10:49 -29.93421 -71.15812 1114 ft 116 kts 296°
2026-04-17 10:49 -29.93070 -71.16636 960 ft 115 kts 295°
2026-04-17 10:50 -29.92713 -71.17456 811 ft 113 kts 296°
2026-04-17 10:50 -29.92380 -71.18255 662 ft 109 kts 297°
2026-04-17 10:50 -29.92042 -71.19038 522 ft 109 kts 297°
2026-04-17 10:50 -29.91729 -71.19765 463 ft 85 kts 296°
2026-04-17 10:51 -29.91542 -71.20196 455 ft 28 kts 296°
2026-04-17 10:51 -29.91543 -71.20271 456 ft 8 kts 215°
2026-04-17 10:51 -29.91571 -71.20286 459 ft 0 kts 204°
2026-04-17 10:51 -29.91618 -71.20306 462 ft 11 kts 180°
2026-04-17 10:52 -29.91673 -71.20238 461 ft 7 kts 133°
2026-04-17 10:52 -29.91707 -71.20237 461 ft 1 kts 189°
2026-04-17 10:52 -29.91713 -71.20238 461 ft 0 kts 188°